NORTHEAST SUFFOLK  -  Rip Current Statement Rip Current Statement        NORTHERN NASSAU  -  Rip Current Statement Rip Current Statement        NORTHERN QUEENS  -  Rip Current Statement Rip Current Statement     Air Quality Alert Air Quality Alert        NORTHWEST SUFFOLK  -  Rip Current Statement Rip Current Statement        SOUTHEAST SUFFOLK  -  Rip Current Statement Rip Current Statement        SOUTHERN NASSAU  -  Rip Current Statement Rip Current Statement        SOUTHERN QUEENS  -  Rip Current Statement Rip Current Statement     Air Quality Alert Air Quality Alert        SOUTHWEST SUFFOLK  -  Rip Current Statement Rip Current Statement      

Active alerts

Northern Queens
  Details for Northern Queens Rip Current Statement  +1 additional alert
Southern Queens
  Details for Southern Queens Rip Current Statement  +1 additional alert
Northern Nassau
  Details for Northern Nassau Rip Current Statement
Southern Nassau
  Details for Southern Nassau Rip Current Statement
Northwest Suffolk
  Details for Northwest Suffolk Rip Current Statement
Southwest Suffolk
  Details for Southwest Suffolk Rip Current Statement
Northeast Suffolk
  Details for Northeast Suffolk Rip Current Statement
Southeast Suffolk
  Details for Southeast Suffolk Rip Current Statement


WXM80 ListenWXM80 Stop

You find our weather info also at:

UK Metoffice

WeatherCloud

Weather Underground

Northeastern Weather Network

AWEKAS

Citizen Weather Observer Program (CWOP)

HAMweather, WeatherForYou, PWS Weather


Weather Underground History page Text

Daily Summary for February 22, 2016 Units:  English    Metric   Both
« Previous Day
Next Day »
Daily Weekly Monthly Yearly Custom
  High: Low: Average:
Temperature: 51.5 °F 35.7 °F 42.5 °F
Dew Point: 37.0 °F 27.1 °F 32.9 °F
Humidity: 90 % 47 % 71 %
Wind Speed: 6.7 mph 0.0 mph 1.8 mph
Wind Gust: 10.4 mph - -
Wind:- - SSW
Pressure: 30.27 in 29.95 in -
Precipitation: 0.00 in    
Historical Graphs
 
 
Tabular Data for February 22, 2016
Time Temperature Dew Point Pressure Wind Wind Speed Wind Gust Humidity Rainfall Rate (Hourly)
00:04 40.0 °F 37.0 °F 29.95 in ENE 6.4 mph 10.4 mph 89 % 0.00 in
00:09 40.0 °F 36.7 °F 29.95 in ENE 4.4 mph 8.1 mph 88 % 0.00 in
00:14 40.0 °F 36.7 °F 29.95 in East 4.5 mph 5.0 mph 88 % 0.00 in
00:19 40.0 °F 36.7 °F 29.95 in East 2.9 mph 5.8 mph 88 % 0.00 in
00:24 39.9 °F 36.9 °F 29.95 in ENE 3.6 mph 4.0 mph 89 % 0.00 in
00:30 39.8 °F 36.8 °F 29.95 in East 4.6 mph 6.0 mph 89 % 0.00 in
00:35 39.8 °F 36.8 °F 29.96 in East 3.3 mph 3.5 mph 89 % 0.00 in
00:40 39.7 °F 36.7 °F 29.95 in East 3.2 mph 5.0 mph 89 % 0.00 in
00:45 39.7 °F 36.7 °F 29.95 in ENE 2.0 mph 3.5 mph 89 % 0.00 in
00:50 39.6 °F 36.6 °F 29.95 in ENE 2.1 mph 3.5 mph 89 % 0.00 in
00:55 39.5 °F 36.5 °F 29.95 in ENE 1.8 mph 3.5 mph 89 % 0.00 in
01:00 39.5 °F 36.5 °F 29.95 in ENE 1.7 mph 3.5 mph 89 % 0.00 in
01:10 39.4 °F 36.4 °F 29.96 in ENE 0.3 mph 1.2 mph 89 % 0.00 in
01:15 39.3 °F 36.3 °F 29.96 in Calm   1.2 mph 89 % 0.00 in
01:21 39.3 °F 36.3 °F 29.97 in ENE 1.0 mph 2.0 mph 89 % 0.00 in
01:26 39.2 °F 36.2 °F 29.96 in ENE 0.7 mph 2.3 mph 89 % 0.00 in
01:31 39.2 °F 36.2 °F 29.96 in Calm   1.2 mph 89 % 0.00 in
01:36 39.1 °F 36.1 °F 29.97 in Calm     89 % 0.00 in
01:41 39.0 °F 35.7 °F 29.96 in Calm     88 % 0.00 in
01:46 38.8 °F 35.6 °F 29.95 in ENE 0.8 mph 2.3 mph 88 % 0.00 in
01:51 38.8 °F 35.6 °F 29.95 in Calm     88 % 0.00 in
01:56 38.7 °F 35.7 °F 29.96 in Calm     89 % 0.00 in
02:01 38.6 °F 35.6 °F 29.96 in Calm     89 % 0.00 in
02:06 38.4 °F 35.7 °F 29.95 in ENE 1.1 mph 2.3 mph 90 % 0.00 in
02:12 38.3 °F 35.6 °F 29.95 in NNE 0.8 mph 1.2 mph 90 % 0.00 in
02:17 38.2 °F 35.5 °F 29.96 in NW 1.7 mph 3.5 mph 90 % 0.00 in
02:22 38.1 °F 35.4 °F 29.96 in North 1.7 mph 6.0 mph 90 % 0.00 in
02:27 38.0 °F 35.3 °F 29.96 in North 3.1 mph 4.6 mph 90 % 0.00 in
02:32 37.9 °F 34.9 °F 29.95 in North 4.1 mph 5.8 mph 89 % 0.00 in
02:37 38.0 °F 34.8 °F 29.95 in North 3.0 mph 6.0 mph 88 % 0.00 in
02:42 38.2 °F 34.4 °F 29.95 in North 3.9 mph 8.1 mph 86 % 0.00 in
02:47 38.4 °F 34.3 °F 29.95 in North 3.5 mph 6.9 mph 85 % 0.00 in
02:57 38.7 °F 34.3 °F 29.95 in NNW 3.4 mph 6.9 mph 84 % 0.00 in
03:03 38.7 °F 34.3 °F 29.96 in NNW 2.4 mph 3.5 mph 84 % 0.00 in
03:13 38.7 °F 34.3 °F 29.95 in NNW 2.6 mph 3.5 mph 84 % 0.00 in
03:18 38.6 °F 34.2 °F 29.96 in NNW 2.1 mph 3.5 mph 84 % 0.00 in
03:23 38.5 °F 34.1 °F 29.95 in NNE 3.5 mph 6.0 mph 84 % 0.00 in
03:28 38.5 °F 34.1 °F 29.96 in NW 3.5 mph 4.6 mph 84 % 0.00 in
03:33 38.4 °F 34.0 °F 29.96 in North 4.2 mph 8.1 mph 84 % 0.00 in
03:43 38.4 °F 33.7 °F 29.97 in North 3.0 mph 4.0 mph 83 % 0.00 in
03:54 38.3 °F 33.6 °F 29.97 in NNE 1.9 mph 4.6 mph 83 % 0.00 in
03:59 38.2 °F 33.5 °F 29.98 in NNW 1.1 mph 4.6 mph 83 % 0.00 in
04:04 38.2 °F 33.8 °F 29.98 in NNW 1.5 mph 3.5 mph 84 % 0.00 in
04:09 38.1 °F 33.7 °F 29.98 in North 2.2 mph 4.6 mph 84 % 0.00 in
04:14 38.0 °F 33.6 °F 29.98 in NW 3.0 mph 5.8 mph 84 % 0.00 in
04:19 37.9 °F 33.5 °F 29.98 in NNW 1.1 mph 3.0 mph 84 % 0.00 in
04:29 37.7 °F 33.6 °F 29.99 in NW 0.5 mph 2.0 mph 85 % 0.00 in
04:34 37.7 °F 33.6 °F 29.99 in North 2.1 mph 4.0 mph 85 % 0.00 in
04:39 37.5 °F 33.4 °F 29.99 in NNW 1.3 mph 2.3 mph 85 % 0.00 in
04:45 37.5 °F 33.4 °F 30.00 in NNW 1.0 mph 2.0 mph 85 % 0.00 in
04:50 37.4 °F 33.6 °F 30.00 in NNW 1.6 mph 3.0 mph 86 % 0.00 in
04:55 37.3 °F 33.5 °F 30.00 in NNW 1.2 mph 3.5 mph 86 % 0.00 in
05:00 37.2 °F 33.4 °F 30.00 in WNW 0.6 mph 3.5 mph 86 % 0.00 in
05:05 37.1 °F 33.3 °F 30.00 in NW 0.7 mph 2.3 mph 86 % 0.00 in
05:10 37.0 °F 33.2 °F 30.01 in NW 3.0 mph 4.6 mph 86 % 0.00 in
05:15 37.0 °F 33.2 °F 30.01 in NNW 0.9 mph 3.0 mph 86 % 0.00 in
05:20 37.0 °F 33.2 °F 30.01 in NNW 1.5 mph 3.5 mph 86 % 0.00 in
05:25 36.9 °F 33.1 °F 30.01 in NW 0.4 mph 4.6 mph 86 % 0.00 in
05:30 36.9 °F 33.1 °F 30.02 in NNW 0.4 mph 3.5 mph 86 % 0.00 in
05:36 36.8 °F 33.3 °F 30.02 in NNW 1.5 mph 3.5 mph 87 % 0.00 in
05:41 36.7 °F 33.2 °F 30.02 in NNW 1.1 mph 3.5 mph 87 % 0.00 in
05:46 36.6 °F 33.1 °F 30.02 in NW 1.5 mph 5.0 mph 87 % 0.00 in
05:51 36.5 °F 33.0 °F 30.03 in NW 0.8 mph 3.0 mph 87 % 0.00 in
06:01 36.4 °F 32.9 °F 30.03 in NW 1.4 mph 2.3 mph 87 % 0.00 in
06:06 36.4 °F 32.9 °F 30.03 in NNW 1.7 mph 3.5 mph 87 % 0.00 in
06:11 36.3 °F 32.8 °F 30.04 in NNW 1.6 mph 3.5 mph 87 % 0.00 in
06:16 36.2 °F 32.7 °F 30.04 in North 1.5 mph 3.5 mph 87 % 0.00 in
06:21 36.2 °F 32.7 °F 30.04 in NNW 1.1 mph 3.5 mph 87 % 0.00 in
06:27 36.1 °F 32.6 °F 30.05 in NNW 0.4 mph 2.3 mph 87 % 0.00 in
06:32 36.1 °F 32.6 °F 30.05 in NNW 1.4 mph 3.5 mph 87 % 0.00 in
06:37 36.0 °F 32.5 °F 30.05 in NW 1.6 mph 3.5 mph 87 % 0.00 in
06:42 35.9 °F 32.4 °F 30.06 in Calm   2.0 mph 87 % 0.00 in
06:47 35.8 °F 32.3 °F 30.06 in NW 0.3 mph 1.2 mph 87 % 0.00 in
06:52 35.8 °F 32.6 °F 30.06 in Calm     88 % 0.00 in
06:57 35.7 °F 32.2 °F 30.07 in Calm   1.2 mph 87 % 0.00 in
07:02 35.8 °F 32.6 °F 30.07 in NW 0.9 mph 3.5 mph 88 % 0.00 in
07:07 35.9 °F 32.7 °F 30.07 in NW 0.7 mph 3.5 mph 88 % 0.00 in
07:12 36.0 °F 32.8 °F 30.08 in NW 0.2 mph 1.2 mph 88 % 0.00 in
07:18 36.1 °F 32.9 °F 30.08 in Calm   2.3 mph 88 % 0.00 in
07:23 36.3 °F 33.1 °F 30.08 in Calm   2.3 mph 88 % 0.00 in
07:28 36.5 °F 33.3 °F 30.09 in NW 1.4 mph 2.3 mph 88 % 0.00 in
07:33 36.8 °F 33.6 °F 30.09 in NW 0.9 mph 3.5 mph 88 % 0.00 in
07:38 36.9 °F 33.4 °F 30.10 in NW 1.6 mph 3.5 mph 87 % 0.00 in
07:43 37.1 °F 33.6 °F 30.10 in NW 1.3 mph 2.3 mph 87 % 0.00 in
07:48 37.3 °F 33.8 °F 30.10 in NW 1.9 mph 4.6 mph 87 % 0.00 in
07:58 37.5 °F 33.7 °F 30.11 in NW 2.3 mph 3.5 mph 86 % 0.00 in
08:03 37.6 °F 33.5 °F 30.11 in NW 0.8 mph 2.0 mph 85 % 0.00 in
08:09 37.9 °F 34.1 °F 30.11 in NNW 1.1 mph 3.5 mph 86 % 0.00 in
08:14 38.2 °F 34.1 °F 30.11 in North 1.2 mph 3.5 mph 85 % 0.00 in
08:24 39.1 °F 34.4 °F 30.11 in NNW 2.4 mph 5.0 mph 83 % 0.00 in
08:29 39.4 °F 34.4 °F 30.11 in NNW 1.7 mph 3.5 mph 82 % 0.00 in
08:34 39.7 °F 34.7 °F 30.11 in NNE 2.3 mph 5.0 mph 82 % 0.00 in
08:39 40.0 °F 34.3 °F 30.11 in NNE 1.0 mph 2.3 mph 80 % 0.00 in
08:44 40.3 °F 34.3 °F 30.11 in NNW 1.1 mph 3.5 mph 79 % 0.00 in
08:49 40.6 °F 34.3 °F 30.12 in NNW 2.7 mph 4.0 mph 78 % 0.00 in
08:54 40.9 °F 34.6 °F 30.11 in NNE 0.4 mph 5.8 mph 78 % 0.00 in
09:00 41.4 °F 34.7 °F 30.11 in North 3.2 mph 4.6 mph 77 % 0.00 in
09:10 42.4 °F 35.0 °F 30.12 in NNE 2.6 mph 4.0 mph 75 % 0.00 in
09:15 43.0 °F 36.0 °F 30.12 in NNE 2.3 mph 3.5 mph 76 % 0.00 in
09:20 43.6 °F 35.9 °F 30.12 in NE 4.7 mph 5.8 mph 74 % 0.00 in
09:25 44.0 °F 35.9 °F 30.12 in NNE 1.7 mph 3.5 mph 73 % 0.00 in
09:30 44.6 °F 36.5 °F 30.12 in NNE 2.0 mph 3.5 mph 73 % 0.00 in
09:35 45.1 °F 36.6 °F 30.12 in North 2.4 mph 3.5 mph 72 % 0.00 in
09:40 45.6 °F 36.4 °F 30.12 in NE 1.6 mph 3.5 mph 70 % 0.00 in
09:45 45.8 °F 35.8 °F 30.12 in NE 1.7 mph 3.5 mph 68 % 0.00 in
09:51 45.9 °F 35.6 °F 30.12 in NNE 2.3 mph 4.0 mph 67 % 0.00 in
09:56 46.0 °F 35.7 °F 30.12 in North 1.0 mph 3.5 mph 67 % 0.00 in
10:01 46.3 °F 35.6 °F 30.12 in ENE 2.3 mph 3.5 mph 66 % 0.00 in
10:06 46.3 °F 35.9 °F 30.12 in NNE 2.6 mph 3.5 mph 67 % 0.00 in
10:16 46.6 °F 35.1 °F 30.12 in NNE 1.5 mph 3.5 mph 64 % 0.00 in
10:21 46.8 °F 34.9 °F 30.12 in North 2.4 mph 3.5 mph 63 % 0.00 in
10:26 47.2 °F 35.2 °F 30.12 in North 1.2 mph 3.0 mph 63 % 0.00 in
10:31 47.5 °F 34.7 °F 30.12 in WNW 1.1 mph 2.3 mph 61 % 0.00 in
10:36 47.8 °F 33.7 °F 30.12 in North 2.5 mph 5.8 mph 58 % 0.00 in
10:42 48.0 °F 33.9 °F 30.12 in NNW 1.2 mph 3.5 mph 58 % 0.00 in
10:47 48.2 °F 34.1 °F 30.11 in NNW 0.2 mph 3.5 mph 58 % 0.00 in
10:52 48.6 °F 34.5 °F 30.11 in NNW 0.7 mph 2.3 mph 58 % 0.00 in
10:57 49.0 °F 34.4 °F 30.12 in NNW 0.8 mph 2.3 mph 57 % 0.00 in
11:02 49.7 °F 35.9 °F 30.12 in North 2.5 mph 4.6 mph 59 % 0.00 in
11:07 50.1 °F 35.0 °F 30.11 in NNE 2.4 mph 4.6 mph 56 % 0.00 in
11:17 50.3 °F 34.3 °F 30.11 in NNE 3.1 mph 4.6 mph 54 % 0.00 in
11:22 50.3 °F 36.5 °F 30.11 in WSW 0.2 mph 3.5 mph 59 % 0.00 in
11:28 50.3 °F 32.8 °F 30.11 in NNW 1.9 mph 5.8 mph 51 % 0.00 in
11:33 50.1 °F 33.1 °F 30.10 in WNW 2.7 mph 4.0 mph 52 % 0.00 in
11:38 49.9 °F 33.9 °F 30.10 in West 3.1 mph 3.5 mph 54 % 0.00 in
11:43 50.0 °F 33.5 °F 30.10 in NW 2.3 mph 3.5 mph 53 % 0.00 in
11:48 50.1 °F 33.6 °F 30.10 in West 3.6 mph 5.0 mph 53 % 0.00 in
11:53 50.0 °F 33.1 °F 30.10 in WNW 4.2 mph 4.6 mph 52 % 0.00 in
11:58 49.6 °F 33.2 °F 30.10 in SSW 3.2 mph 4.6 mph 53 % 0.00 in
12:03 49.3 °F 32.9 °F 30.10 in SSW 0.9 mph 3.0 mph 53 % 0.00 in
12:08 49.2 °F 32.3 °F 30.09 in WSW 3.4 mph 4.6 mph 52 % 0.00 in
12:13 49.1 °F 33.6 °F 30.09 in WNW 2.2 mph 4.6 mph 55 % 0.00 in
12:19 49.1 °F 33.2 °F 30.09 in North 1.4 mph 6.0 mph 54 % 0.00 in
12:24 49.8 °F 34.3 °F 30.09 in WNW 2.0 mph 3.5 mph 55 % 0.00 in
12:29 50.1 °F 33.6 °F 30.09 in SW 0.5 mph 3.5 mph 53 % 0.00 in
12:34 50.2 °F 32.8 °F 30.09 in WNW 1.7 mph 3.5 mph 51 % 0.00 in
12:39 50.4 °F 33.9 °F 30.09 in SSW 3.3 mph 5.8 mph 53 % 0.00 in
12:44 50.5 °F 33.0 °F 30.09 in SSW 5.5 mph 8.0 mph 51 % 0.00 in
12:49 50.5 °F 33.0 °F 30.09 in SW 6.7 mph 9.2 mph 51 % 0.00 in
12:54 50.6 °F 33.1 °F 30.09 in WSW 5.7 mph 6.0 mph 51 % 0.00 in
12:59 50.7 °F 33.7 °F 30.09 in SW 2.5 mph 3.5 mph 52 % 0.00 in
13:04 51.0 °F 34.0 °F 30.09 in WSW 3.8 mph 6.0 mph 52 % 0.00 in
13:10 51.1 °F 32.1 °F 30.09 in WNW 2.6 mph 5.8 mph 48 % 0.00 in
13:15 51.3 °F 33.8 °F 30.09 in SSW 1.9 mph 5.0 mph 51 % 0.00 in
13:25 51.4 °F 32.3 °F 30.09 in WNW 4.1 mph 7.0 mph 48 % 0.00 in
13:30 51.2 °F 32.7 °F 30.09 in WSW 6.2 mph 8.1 mph 49 % 0.00 in
13:35 51.1 °F 32.6 °F 30.09 in WSW 2.2 mph 3.5 mph 49 % 0.00 in
13:40 51.2 °F 33.2 °F 30.08 in SSW 3.2 mph 5.8 mph 50 % 0.00 in
13:45 51.3 °F 32.8 °F 30.08 in WNW 3.4 mph 6.9 mph 49 % 0.00 in
13:50 51.3 °F 32.8 °F 30.08 in WNW 3.3 mph 4.0 mph 49 % 0.00 in
13:55 51.2 °F 32.7 °F 30.08 in WNW 4.9 mph 8.1 mph 49 % 0.00 in
14:01 51.3 °F 32.8 °F 30.08 in NW 3.4 mph 3.5 mph 49 % 0.00 in
14:06 51.3 °F 33.8 °F 30.08 in SSW 4.1 mph 7.0 mph 51 % 0.00 in
14:11 51.3 °F 32.8 °F 30.08 in SW 2.5 mph 5.8 mph 49 % 0.00 in
14:16 51.3 °F 32.8 °F 30.08 in SW 4.2 mph 9.2 mph 49 % 0.00 in
14:21 51.4 °F 32.9 °F 30.08 in WNW 1.5 mph 5.8 mph 49 % 0.00 in
14:26 51.3 °F 33.3 °F 30.09 in WSW 3.7 mph 5.8 mph 50 % 0.00 in
14:31 51.4 °F 33.4 °F 30.09 in WSW 3.0 mph 6.0 mph 50 % 0.00 in
14:36 51.5 °F 33.0 °F 30.08 in SSW 2.7 mph 5.8 mph 49 % 0.00 in
14:41 51.4 °F 32.3 °F 30.08 in WNW 1.4 mph 3.5 mph 48 % 0.00 in
14:46 51.3 °F 31.7 °F 30.08 in WSW 4.0 mph 4.6 mph 47 % 0.00 in
14:52 51.0 °F 32.0 °F 30.09 in SW 3.5 mph 3.5 mph 48 % 0.00 in
14:57 50.8 °F 31.8 °F 30.09 in West 4.6 mph 6.9 mph 48 % 0.00 in
15:02 50.5 °F 31.5 °F 30.09 in SW 2.5 mph 3.5 mph 48 % 0.00 in
15:07 50.3 °F 31.8 °F 30.09 in WSW 0.1 mph 2.3 mph 49 % 0.00 in
15:12 50.1 °F 31.7 °F 30.09 in WSW 3.1 mph 5.0 mph 49 % 0.00 in
15:17 49.9 °F 31.5 °F 30.09 in WNW 0.4 mph 2.3 mph 49 % 0.00 in
15:22 49.8 °F 31.4 °F 30.09 in WNW 0.6 mph 2.0 mph 49 % 0.00 in
15:27 49.7 °F 30.8 °F 30.09 in WNW 0.8 mph 2.3 mph 48 % 0.00 in
15:32 49.5 °F 31.1 °F 30.09 in WNW 1.8 mph 3.0 mph 49 % 0.00 in
15:37 49.4 °F 31.0 °F 30.09 in WSW 1.0 mph 3.5 mph 49 % 0.00 in
15:43 49.3 °F 31.4 °F 30.10 in WSW 2.2 mph 3.5 mph 50 % 0.00 in
15:48 49.3 °F 30.9 °F 30.10 in Calm   2.3 mph 49 % 0.00 in
15:53 49.2 °F 30.8 °F 30.10 in SSW 1.8 mph 3.5 mph 49 % 0.00 in
15:58 49.1 °F 30.7 °F 30.10 in West 0.8 mph 2.3 mph 49 % 0.00 in
16:03 49.1 °F 30.7 °F 30.09 in Calm     49 % 0.00 in
16:13 49.0 °F 30.1 °F 30.10 in WSW 0.1 mph 1.2 mph 48 % 0.00 in
16:18 49.0 °F 30.1 °F 30.10 in WSW 0.7 mph 3.0 mph 48 % 0.00 in
16:23 48.9 °F 30.1 °F 30.10 in SW 2.0 mph 3.5 mph 48 % 0.00 in
16:28 48.9 °F 29.5 °F 30.11 in SW 0.5 mph 1.0 mph 47 % 0.00 in
16:34 48.8 °F 31.9 °F 30.11 in SW 0.2 mph 1.2 mph 52 % 0.00 in
16:39 48.7 °F 32.3 °F 30.11 in Calm   1.2 mph 53 % 0.00 in
16:44 48.6 °F 32.2 °F 30.12 in Calm     53 % 0.00 in
16:49 48.5 °F 31.7 °F 30.12 in Calm     52 % 0.00 in
16:54 48.4 °F 32.0 °F 30.12 in SW 0.8 mph 1.2 mph 53 % 0.00 in
16:59 48.3 °F 31.9 °F 30.13 in Calm     53 % 0.00 in
17:04 48.1 °F 31.8 °F 30.13 in SW 0.1 mph 1.2 mph 53 % 0.00 in
17:25 47.3 °F 31.5 °F 30.14 in SW 0.3 mph 1.2 mph 54 % 0.00 in
17:30 47.0 °F 31.7 °F 30.14 in Calm     55 % 0.00 in
17:35 46.7 °F 31.8 °F 30.15 in Calm     56 % 0.00 in
17:40 46.5 °F 32.1 °F 30.15 in Calm     57 % 0.00 in
17:45 46.2 °F 31.8 °F 30.15 in Calm     57 % 0.00 in
17:50 45.9 °F 31.9 °F 30.15 in Calm     58 % 0.00 in
17:55 45.6 °F 31.7 °F 30.15 in Calm     58 % 0.00 in
18:00 45.1 °F 32.0 °F 30.15 in SSE 2.0 mph 4.0 mph 60 % 0.00 in
18:05 44.6 °F 32.4 °F 30.16 in SSE 1.5 mph 3.5 mph 62 % 0.00 in
18:16 44.2 °F 32.4 °F 30.16 in South 0.7 mph 3.5 mph 63 % 0.00 in
18:21 44.0 °F 32.6 °F 30.16 in South 1.0 mph 3.5 mph 64 % 0.00 in
18:26 43.8 °F 32.4 °F 30.17 in South 0.8 mph 2.3 mph 64 % 0.00 in
18:31 43.6 °F 32.2 °F 30.17 in SSW 0.6 mph 2.3 mph 64 % 0.00 in
18:36 43.4 °F 32.0 °F 30.17 in Calm     64 % 0.00 in
18:41 43.3 °F 31.9 °F 30.17 in Calm   1.0 mph 64 % 0.00 in
18:46 43.1 °F 32.1 °F 30.17 in SSW 0.3 mph 1.2 mph 65 % 0.00 in
18:51 42.8 °F 31.8 °F 30.17 in SE 0.7 mph 3.5 mph 65 % 0.00 in
18:56 42.6 °F 31.7 °F 30.18 in South 2.0 mph 3.0 mph 65 % 0.00 in
19:07 42.4 °F 31.5 °F 30.18 in South 0.2 mph 2.3 mph 65 % 0.00 in
19:22 41.8 °F 31.3 °F 30.19 in Calm   1.2 mph 66 % 0.00 in
19:27 41.6 °F 31.1 °F 30.19 in Calm     66 % 0.00 in
19:32 41.3 °F 31.2 °F 30.20 in Calm     67 % 0.00 in
19:37 41.0 °F 31.2 °F 30.20 in Calm     68 % 0.00 in
19:52 40.2 °F 31.5 °F 30.20 in Calm     71 % 0.00 in
19:58 40.0 °F 31.4 °F 30.21 in Calm   1.2 mph 71 % 0.00 in
20:03 39.8 °F 31.5 °F 30.21 in South 0.8 mph 2.3 mph 72 % 0.00 in
20:08 39.5 °F 31.6 °F 30.22 in Calm     73 % 0.00 in
20:13 39.3 °F 31.4 °F 30.22 in Calm   1.2 mph 73 % 0.00 in
20:18 39.1 °F 31.2 °F 30.22 in Calm     73 % 0.00 in
20:23 38.8 °F 31.2 °F 30.22 in NW 1.1 mph 2.3 mph 74 % 0.00 in
20:28 38.6 °F 31.4 °F 30.23 in Calm   1.2 mph 75 % 0.00 in
20:33 38.4 °F 31.2 °F 30.23 in Calm     75 % 0.00 in
20:38 38.2 °F 31.3 °F 30.23 in NW 0.5 mph 1.2 mph 76 % 0.00 in
20:43 38.1 °F 31.5 °F 30.23 in NNW 0.6 mph 2.3 mph 77 % 0.00 in
20:49 38.0 °F 31.4 °F 30.23 in NNW 0.3 mph 2.0 mph 77 % 0.00 in
20:54 37.9 °F 31.7 °F 30.24 in North 0.7 mph 2.3 mph 78 % 0.00 in
20:59 37.6 °F 31.7 °F 30.24 in Calm   2.3 mph 79 % 0.00 in
21:04 37.5 °F 31.6 °F 30.24 in Calm     79 % 0.00 in
21:09 37.4 °F 31.5 °F 30.24 in North 0.9 mph 2.3 mph 79 % 0.00 in
21:14 37.3 °F 31.7 °F 30.25 in North 0.6 mph 1.2 mph 80 % 0.00 in
21:19 37.1 °F 31.5 °F 30.24 in Calm     80 % 0.00 in
21:24 37.0 °F 31.7 °F 30.25 in North 0.2 mph   81 % 0.00 in
21:29 36.8 °F 31.5 °F 30.25 in North 0.4 mph 1.2 mph 81 % 0.00 in
21:40 36.6 °F 32.2 °F 30.25 in ENE 4.1 mph 7.0 mph 84 % 0.00 in
21:50 37.5 °F 29.3 °F 30.25 in ENE 4.6 mph 7.0 mph 72 % 0.00 in
21:55 37.9 °F 29.7 °F 30.25 in ENE 5.1 mph 8.1 mph 72 % 0.00 in
22:00 38.2 °F 30.0 °F 30.25 in ENE 6.6 mph 9.2 mph 72 % 0.00 in
22:05 38.3 °F 30.1 °F 30.25 in ENE 5.5 mph 7.0 mph 72 % 0.00 in
22:10 38.4 °F 30.2 °F 30.26 in ENE 4.5 mph 8.1 mph 72 % 0.00 in
22:15 38.4 °F 30.2 °F 30.26 in ENE 4.5 mph 5.8 mph 72 % 0.00 in
22:20 38.3 °F 29.4 °F 30.26 in East 3.9 mph 6.9 mph 70 % 0.00 in
22:25 38.2 °F 28.9 °F 30.26 in ENE 4.8 mph 6.9 mph 69 % 0.00 in
22:31 38.1 °F 27.7 °F 30.26 in East 4.5 mph 6.9 mph 66 % 0.00 in
22:36 38.1 °F 27.7 °F 30.26 in ENE 4.5 mph 6.9 mph 66 % 0.00 in
22:41 38.0 °F 27.3 °F 30.26 in ENE 3.4 mph 4.6 mph 65 % 0.00 in
22:46 37.9 °F 27.9 °F 30.26 in ENE 3.1 mph 5.0 mph 67 % 0.00 in
22:51 37.7 °F 27.7 °F 30.26 in ENE 2.8 mph 4.0 mph 67 % 0.00 in
22:56 37.6 °F 27.6 °F 30.26 in East 3.2 mph 6.9 mph 67 % 0.00 in
23:01 37.5 °F 27.5 °F 30.26 in ENE 2.5 mph 3.5 mph 67 % 0.00 in
23:06 37.4 °F 27.1 °F 30.26 in ENE 1.6 mph 3.5 mph 66 % 0.00 in
23:11 37.3 °F 27.7 °F 30.26 in ENE 2.2 mph 3.5 mph 68 % 0.00 in
23:16 37.1 °F 27.9 °F 30.27 in ENE 1.4 mph 3.5 mph 69 % 0.00 in
23:22 37.0 °F 28.1 °F 30.26 in ENE 1.3 mph 2.3 mph 70 % 0.00 in
23:27 36.9 °F 28.0 °F 30.26 in ENE 1.1 mph 2.3 mph 70 % 0.00 in
23:37 36.5 °F 28.3 °F 30.26 in ENE 1.0 mph 2.3 mph 72 % 0.00 in
23:42 36.4 °F 28.2 °F 30.26 in ENE 1.1 mph 2.3 mph 72 % 0.00 in
23:47 36.3 °F 28.5 °F 30.26 in ENE 1.8 mph 3.5 mph 73 % 0.00 in
23:52 36.2 °F 28.0 °F 30.26 in ENE 2.3 mph 3.5 mph 72 % 0.00 in
Crab Meadow Weather
Compliments of Weather Underground - 2.75 mb

Script developed by  Jim McMurry - jmcmurry@mwt.net Adapted for the template by  Wim van der Kuil - Leuven-Template.eu

Astronomy: It takes 16 million horsepower to break loose from the Earth's gravitational pull.